Terug naar catalogus

STARLINK-35494

ActiefCommunicatieVLEO
NORAD 65927·PAYLOAD·🇺🇸 United States

Gelanceerd Oct 8, 2025 vanaf Vandenberg Space Force Base

Loading…

Volgende Passages (komende 24 uur)

TLE

VersSource: CelesTrak SupGP

Epoch: Sep 15, 2026, 03:30 UTC

1 65927C 25225T   26258.14631944  .00075397  00000+0  22269-2 0  2581
2 65927  53.1600   2.4022 0001149  81.8123 179.2021 15.34362833    15

Volg STARLINK-35494 in realtime met AllMySat

Download on the App Store